Probability
10 6 6 10 13 10 6 10 6 6 3 3 6 6 6 0 0 10 13 35 39 45 45 39 35 39 32 32 32 32 35 35 35 35 32 29 26 23 23 23 23 23 23
10 6 6 10 6 3 3 3 3 3 3 3 6 3 3 3 0 3 10 19 26 39 45 42 29 26 29 26 26 29 29 32 35 29 26 26 23 26 23 23 26 19 19
6 3 6 6 3 3 3 3 3 3 3 3 3 6 6 0 3 6 10 10 26 29 42 45 32 32 29 29 23 26 23 23 26 26 29 29 26 26 26 23 19 16 10
6 3 3 3 3 3 3 3 3 3 3 3 3 3 3 3 6 3 6 3 13 16 26 29 32 35 29 26 19 19 19 19 19 23 19 26 26 19 19 19 16 10 6
6 6 6 3 0 0 3 3 3 0 0 0 0 3 3 3 3 6 3 3 3 10 16 19 23 32 26 19 16 16 16 16 19 16 16 16 19 19 19 16 10 3 3
6 6 3 3 3 0 3 3 3 3 3 3 3 3 3 3 3 3 3 3 3 3 3 3 13 13 16 19 23 19 16 10 19 16 16 16 16 16 16 13 3 3 3
6 3 3 3 3 3 3 3 3 3 3 3 3 3 3 0 0 0 0 3 3 3 3 3 0 0 10 19 19 16 16 13 16 16 13 13 16 16 13 3 3 3 3
10 6 3 3 0 0 3 3 0 3 3 3 3 3 3 0 0 0 0 0 0 0 0 3 3 3 3 13 13 19 19 19 13 13 13 16 19 16 13 10 3 3 3
3 6 6 0 0 0 0 0 0 0 0 0 3 3 3 0 0 0 0 0 0 0 0 0 0 0 6 6 13 16 19 19 16 16 16 16 13 16 13 13 10 6 3
3 3 6 3 0 0 0 0 0 0 0 0 0 0 0 0 0 0 0 0 0 0 0 0 0 3 3 6 6 10 6 10 13 16 13 16 13 13 13 13 13 10 3
3 3 3 0 0 0 0 0 0 0 0 0 0 0 0 0 0 0 0 0 0 0 0 0 0 0 0 6 6 6 3 3 6 13 13 10 13 13 13 13 13 10 3
3 3 0 0 3 0 0 0 0 0 0 0 0 0 0 0 0 0 0 0 0 0 0 0 0 0 0 0 3 3 3 3 3 6 6 10 10 13 13 13 10 10 6
0 0 0 0 0 0 0 0 0 0 0 0 0 0 0 0 0 0 0 0 0 0 0 0 0 0 0 0 3 3 3 3 3 0 0 0 3 6 6 6 6 10 6
0 0 0 0 0 0 0 0 0 0 0 0 0 0 0 0 0 0 0 0 0 0 0 0 0 0 0 0 0 0 3 0 0 0 0 0 0 0 0 0 3 6 6
0 0 0 0 0 0 0 0 0 0 0 0 0 0 0 0 0 0 0 0 0 0 0 0 0 0 0 0 0 0 0 0 0 0 0 0 0 0 0 0 0 0 0
0 0 0 0 0 0 0 0 0 0 0 0 0 0 0 0 0 0 0 0 0 0 0 0 0 0 0 0 0 0 0 0 0 0 0 0 0 0 0 0 0 0 0
0 0 0 0 0 0 0 0 0 0 0 0 0 0 0 0 0 0 0 0 0 0 0 0 0 0 0 0 0 0 0 0 0 0 0 0 0 0 0 0 0 0 0
0 0 0 0 0 0 0 0 0 0 0 0 0 0 0 0 0 0 0 0 0 0 0 0 0 0 0 0 0 0 0 0 0 0 0 0 0 0 0 0 0 0 0
0 0 0 0 0 0 0 0 0 0 0 0 0 0 0 0 0 0 0 0 0 0 0 0 0 0 0 0 0 0 0 0 0 0 0 0 0 0 0 0 0 0 0
0 0 0 0 0 0 0 0 0 0 0 0 0 0 0 0 0 0 0 0 0 0 0 0 0 0 0 0 0 0 0 0 0 0 0 0 0 0 0 0 0 0 0
0 0 0 0 0 0 0 0 0 0 0 0 0 0 0 0 0 0 0 3 0 0 0 0 0 0 0 0 0 0 0 0 0 0 0 0 0 0 0 0 0 0 0
0 0 0 0 0 0 0 0 0 0 0 0 0 0 0 0 0 0 0 0 0 0 0 0 0 0 0 0 0 0 0 0 0 0 0 0 0 0 0 0 0 0 0
0 0 0 0 0 0 0 0 0 0 0 0 0 0 0 0 0 0 0 0 0 0 0 0 0 0 0 0 0 0 0 0 0 0 0 0 0 0 0 0 0 0 0
0 0 0 0 0 0 0 0 0 0 0 0 0 0 0 0 0 0 0 0 0 0 0 0 0 0 0 0 0 0 0 0 0 0 0 0 0 0 0 0 0 0 0
0 0 0 0 0 0 0 0 0 0 0 0 0 0 0 0 0 0 0 0 0 0 0 0 0 0 0 0 0 0 0 0 0 0 0 0 0 0 0 0 0 0 0
0 0 0 0 0 0 0 0 0 0 0 0 0 0 0 0 0 0 0 0 0 0 0 0 0 0 0 0 0 0 0 0 0 0 0 0 0 0 0 0 0 0 0
Height
5854 5855 5855 5856 5856 5856 5856 5857 5857 5858 5858 5859 5859 5859 5860 5860 5861 5861 5862 5862 5863 5863 5863 5864 5864 5864 5864 5864 5864 5865 5866 5866 5866 5867 5867 5868 5868 5869 5870 5871 5871 5872 5873
5852 5853 5853 5854 5855 5855 5855 5855 5856 5856 5856 5856 5857 5857 5857 5858 5858 5859 5860 5860 5861 5861 5861 5861 5862 5862 5862 5862 5862 5863 5863 5863 5864 5864 5864 5865 5865 5865 5866 5867 5868 5869 5869
5851 5851 5852 5852 5853 5853 5853 5853 5853 5854 5854 5854 5854 5855 5855 5856 5856 5857 5857 5858 5858 5859 5859 5859 5859 5859 5860 5860 5860 5860 5860 5860 5861 5861 5861 5862 5862 5862 5863 5863 5864 5865 5866
5849 5849 5850 5850 5851 5851 5851 5851 5851 5852 5852 5852 5852 5852 5853 5853 5854 5854 5855 5855 5855 5856 5856 5856 5857 5857 5857 5857 5857 5858 5858 5858 5858 5858 5858 5859 5859 5859 5859 5860 5860 5861 5862
5847 5847 5848 5848 5848 5848 5849 5849 5849 5849 5849 5849 5850 5850 5850 5851 5851 5851 5852 5852 5852 5853 5853 5853 5853 5854 5854 5854 5855 5855 5855 5855 5855 5855 5855 5856 5855 5855 5855 5856 5856 5857 5858
5844 5845 5845 5845 5845 5846 5846 5846 5846 5846 5846 5847 5847 5848 5848 5848 5848 5848 5848 5849 5849 5849 5850 5850 5850 5851 5851 5851 5852 5851 5852 5852 5852 5852 5852 5852 5852 5851 5851 5851 5852 5853 5853
5841 5842 5843 5843 5843 5843 5844 5844 5844 5844 5844 5844 5845 5845 5845 5844 5845 5845 5845 5845 5845 5846 5846 5846 5847 5847 5848 5848 5848 5848 5848 5848 5848 5848 5848 5848 5848 5847 5847 5847 5847 5848 5849
5839 5839 5840 5840 5840 5840 5841 5841 5841 5841 5841 5841 5841 5841 5841 5842 5841 5841 5841 5842 5842 5842 5842 5843 5843 5844 5844 5845 5845 5845 5845 5845 5845 5845 5844 5844 5843 5843 5842 5842 5842 5843 5843
5836 5836 5837 5837 5837 5838 5838 5838 5838 5838 5838 5838 5838 5838 5838 5838 5838 5838 5838 5838 5838 5838 5839 5839 5839 5840 5841 5841 5841 5841 5841 5841 5841 5841 5840 5840 5839 5838 5838 5837 5837 5838 5838
5833 5833 5834 5834 5835 5835 5835 5835 5835 5835 5834 5834 5834 5834 5834 5835 5835 5835 5835 5835 5835 5835 5835 5836 5836 5836 5836 5837 5837 5837 5837 5837 5837 5837 5836 5835 5835 5834 5833 5833 5833 5833 5832
5830 5831 5831 5831 5832 5832 5832 5832 5832 5831 5831 5831 5830 5830 5830 5830 5831 5831 5831 5831 5831 5831 5831 5832 5832 5832 5832 5833 5833 5833 5833 5833 5833 5832 5831 5831 5830 5830 5829 5829 5828 5827 5827
5827 5828 5828 5828 5828 5828 5828 5828 5828 5828 5828 5827 5827 5827 5827 5827 5827 5827 5827 5827 5827 5828 5828 5828 5828 5828 5828 5829 5829 5829 5829 5829 5828 5828 5827 5826 5826 5825 5824 5824 5823 5822 5822
5824 5824 5824 5824 5824 5824 5825 5825 5825 5825 5824 5824 5823 5823 5823 5823 5823 5823 5823 5824 5824 5824 5824 5824 5824 5824 5824 5824 5824 5824 5824 5824 5824 5823 5822 5821 5821 5820 5819 5818 5817 5817 5816
5820 5821 5821 5821 5821 5821 5821 5822 5821 5821 5821 5820 5820 5819 5819 5819 5819 5819 5820 5820 5820 5820 5820 5820 5820 5820 5820 5820 5820 5820 5820 5820 5819 5819 5818 5817 5816 5815 5814 5813 5812 5811 5811
5817 5817 5817 5817 5817 5818 5818 5818 5818 5818 5817 5817 5816 5816 5816 5816 5816 5816 5816 5816 5816 5816 5816 5816 5816 5816 5815 5815 5815 5815 5815 5815 5815 5814 5813 5812 5811 5810 5809 5808 5807 5807 5806
5813 5813 5814 5814 5814 5814 5815 5814 5814 5814 5813 5813 5812 5812 5812 5812 5812 5812 5812 5812 5812 5812 5812 5812 5811 5811 5811 5811 5810 5810 5811 5810 5810 5809 5808 5807 5806 5806 5804 5803 5802 5802 5801
5809 5810 5810 5810 5811 5811 5811 5811 5811 5810 5810 5809 5808 5808 5808 5808 5808 5808 5808 5808 5808 5808 5808 5808 5807 5807 5807 5807 5806 5806 5806 5805 5805 5804 5803 5802 5801 5801 5800 5799 5798 5797 5796
5806 5807 5807 5807 5807 5807 5807 5807 5807 5806 5806 5805 5805 5804 5804 5803 5803 5803 5804 5804 5804 5804 5804 5803 5803 5803 5802 5802 5802 5802 5801 5800 5800 5799 5798 5797 5796 5795 5795 5794 5793 5792 5791
5802 5803 5803 5803 5803 5803 5803 5803 5803 5802 5802 5801 5801 5800 5800 5799 5799 5799 5799 5799 5799 5799 5799 5799 5799 5798 5798 5798 5797 5797 5796 5795 5795 5794 5793 5792 5790 5790 5789 5789 5787 5786 5785
5798 5799 5800 5800 5799 5799 5799 5799 5798 5798 5798 5797 5796 5796 5796 5795 5795 5795 5795 5795 5795 5795 5795 5794 5794 5794 5793 5793 5793 5792 5792 5791 5790 5789 5787 5786 5785 5784 5783 5783 5782 5781 5780
5794 5795 5795 5795 5795 5795 5795 5794 5794 5793 5793 5792 5792 5791 5791 5791 5791 5791 5791 5790 5790 5790 5790 5790 5789 5789 5789 5789 5788 5788 5787 5786 5785 5783 5782 5780 5779 5778 5778 5777 5776 5775 5774
5790 5790 5790 5790 5790 5790 5790 5789 5789 5788 5788 5788 5787 5787 5786 5786 5786 5786 5786 5786 5786 5786 5786 5785 5785 5784 5784 5784 5783 5782 5782 5781 5780 5779 5777 5776 5774 5772 5772 5771 5770 5770 5769
5785 5785 5786 5785 5785 5785 5785 5784 5783 5783 5783 5783 5782 5782 5782 5782 5781 5781 5781 5780 5780 5780 5781 5781 5781 5780 5779 5779 5778 5777 5776 5775 5774 5773 5772 5771 5769 5768 5766 5766 5765 5764 5763
5780 5780 5781 5780 5780 5780 5780 5779 5779 5778 5778 5778 5777 5777 5777 5777 5776 5776 5775 5775 5775 5775 5775 5776 5776 5775 5774 5773 5772 5772 5770 5770 5769 5768 5766 5765 5764 5763 5762 5761 5760 5759 5758
5775 5775 5775 5775 5775 5775 5775 5774 5774 5774 5773 5773 5773 5772 5772 5771 5771 5770 5770 5770 5770 5770 5770 5770 5770 5769 5768 5768 5767 5766 5765 5764 5763 5762 5761 5760 5759 5758 5757 5755 5754 5753 5752
5769 5770 5770 5770 5770 5770 5770 5769 5769 5769 5768 5768 5767 5767 5767 5766 5766 5765 5765 5765 5765 5765 5765 5765 5764 5764 5763 5762 5761 5760 5759 5758 5757 5757 5756 5755 5754 5752 5752 5751 5749 5748 5746
Wind_Speed
7 7 6 6 6 6 6 7 7 8 8 8 9 9 9 9 9 8 9 9 9 9 9 8 8 8 9 9 9 9 9 10 10 10 11 12 12 13 13 14 14 14 14
7 6 6 7 7 7 6 7 8 9 9 10 10 9 9 9 9 9 9 9 9 10 10 9 9 9 9 9 10 10 10 10 10 9 10 11 12 13 14 14 15 15 15
7 7 7 8 9 8 8 8 9 10 10 10 10 10 10 9 10 11 11 10 10 11 11 11 10 10 10 10 10 10 10 10 10 10 10 10 11 12 13 13 14 16 16
9 8 8 8 9 9 9 9 9 10 10 10 10 11 11 10 11 11 12 12 11 11 11 11 12 11 11 11 10 10 10 10 10 11 11 11 11 12 13 14 15 15 17
10 10 10 10 10 9 9 9 9 10 10 11 11 11 11 11 12 12 12 12 12 12 12 12 12 12 11 11 11 11 11 11 11 11 12 12 12 14 14 15 15 16 16
11 11 11 10 10 10 9 9 10 10 10 11 11 11 12 12 13 13 13 13 12 12 12 12 13 12 12 12 12 12 12 12 12 13 14 14 14 14 15 15 17 17 17
11 11 11 11 11 10 10 10 11 11 11 12 12 12 13 13 13 13 13 13 13 13 13 13 13 13 13 12 12 13 13 13 14 14 15 16 16 16 16 16 17 17 17
11 11 11 11 11 11 11 11 12 12 12 13 13 14 14 14 13 13 13 13 13 13 12 12 13 13 13 13 13 12 13 14 14 15 15 15 16 17 17 17 17 18 18
11 11 11 11 11 11 11 12 13 12 12 13 14 14 14 13 13 13 13 13 13 12 12 12 13 13 14 14 14 14 14 14 14 15 15 15 16 17 17 17 18 18 20
11 11 11 11 11 11 12 12 13 13 13 14 14 14 14 13 14 13 13 13 12 12 13 13 13 13 14 15 15 15 15 15 15 15 16 15 16 17 17 17 18 18 19
11 11 12 12 12 12 12 12 13 13 13 14 14 14 14 14 14 14 14 14 14 13 14 15 15 14 14 15 16 16 16 16 16 16 16 16 16 17 18 17 18 18 19
12 12 12 13 13 13 13 13 13 13 12 13 14 14 14 14 13 13 14 14 15 15 15 15 15 15 15 15 16 16 15 15 16 16 16 16 17 17 17 18 18 18 18
13 13 13 13 14 14 14 14 13 13 13 14 14 14 14 13 13 14 14 14 14 14 15 15 15 16 16 16 16 16 16 16 16 16 16 16 17 17 17 18 18 18 18
13 13 13 13 13 13 14 13 13 14 14 14 14 14 13 13 13 14 14 14 14 14 14 15 15 16 16 16 16 16 16 16 16 17 17 17 17 17 17 17 18 18 18
13 13 14 13 12 13 13 14 14 15 15 14 13 13 13 14 14 14 14 14 14 14 14 15 15 16 16 17 17 17 16 16 16 17 17 17 17 16 17 17 18 18 18
14 14 14 13 12 13 14 14 14 14 14 13 14 14 14 15 15 15 15 15 15 15 15 15 15 15 16 16 16 16 16 16 16 17 17 17 16 16 16 16 17 17 18
14 14 14 13 13 12 13 13 14 14 14 14 14 15 15 15 15 15 15 15 15 15 15 15 16 16 16 16 16 16 16 17 17 18 18 17 17 17 16 16 16 17 18
14 13 13 13 13 13 13 14 14 14 15 15 14 15 15 15 15 15 15 15 15 15 15 15 15 16 16 16 17 17 17 18 18 18 18 18 18 17 17 17 17 18 18
14 14 14 13 13 14 14 15 15 15 15 15 15 15 15 15 15 15 16 16 15 15 15 15 16 16 17 17 17 17 18 18 18 18 19 19 19 18 18 18 18 18 17
15 15 15 15 14 15 15 16 16 16 15 15 15 15 15 15 15 16 17 17 16 15 15 16 16 17 17 17 17 17 17 17 18 19 19 18 18 18 18 19 19 18 18
16 16 17 17 16 16 16 17 17 17 16 15 15 16 16 16 16 16 17 18 17 17 16 16 16 17 17 18 18 18 17 18 18 18 18 18 18 18 18 18 19 18 18
17 17 17 17 17 17 18 18 18 17 17 16 16 16 16 16 16 17 18 18 18 18 17 17 16 17 17 18 18 18 19 18 18 18 18 18 18 18 18 18 19 19 19
17 17 17 17 18 18 18 17 17 16 16 17 17 16 16 16 17 18 18 18 18 19 18 17 17 18 18 18 19 19 19 19 19 18 18 17 18 18 18 18 18 18 18
17 17 17 17 17 17 17 17 17 17 17 17 17 17 17 17 18 19 19 18 18 18 18 18 18 19 19 19 20 20 20 19 19 19 18 18 18 18 18 18 19 19 19
18 18 18 17 17 18 18 18 18 18 18 17 17 17 17 18 18 18 18 18 18 18 18 18 19 19 19 20 20 19 20 20 19 19 19 19 18 18 18 19 19 19 20
19 19 19 18 18 18 19 19 19 19 18 18 19 19 19 18 18 18 18 18 19 19 18 19 19 20 20 20 19 20 20 19 19 20 19 19 19 19 18 19 20 20 20
Wind_Direction
264 266 261 264 266 271 265 261 268 271 272 271 275 275 277 274 271 267 266 266 266 269 271 272 269 268 262 265 268 268 268 270 271 270 268 268 264 260 261 260 257 256 256
263 265 267 268 269 271 270 266 266 270 270 268 270 272 276 275 269 267 266 265 264 265 268 270 269 268 265 267 273 270 273 272 272 271 272 272 266 265 264 261 257 257 257
260 267 270 270 273 274 276 271 265 266 271 269 270 271 275 274 271 271 267 265 265 266 266 268 269 266 265 267 272 272 274 275 274 272 271 270 265 266 263 261 259 256 255
258 261 264 266 270 272 274 272 267 267 270 270 270 270 274 275 273 274 272 270 267 266 264 264 266 266 267 269 270 271 275 274 272 270 271 272 270 267 263 262 262 259 258
259 259 261 263 267 266 268 272 274 267 271 270 270 271 274 276 275 274 271 270 268 267 265 263 264 263 266 267 268 271 272 272 272 270 273 273 271 267 265 266 264 260 259
261 261 262 261 265 266 266 269 276 269 267 268 270 273 276 276 277 273 269 268 268 267 266 264 262 261 263 265 265 268 270 273 272 274 274 273 273 272 271 269 267 264 262
258 260 260 263 268 268 268 271 273 271 268 268 270 273 276 276 277 271 267 267 269 268 266 264 264 262 262 262 264 268 268 270 273 275 276 275 273 274 273 270 266 263 263
257 262 266 265 269 267 271 275 276 273 271 272 272 273 275 274 275 270 268 267 268 267 265 265 266 262 262 265 265 269 270 273 276 276 278 276 276 277 276 272 268 264 264
260 265 267 267 268 267 270 276 279 278 275 275 273 272 274 270 271 272 270 269 268 266 265 265 265 263 264 268 269 269 272 275 278 278 278 279 279 279 275 274 271 269 267
260 262 264 268 270 270 272 276 279 279 277 279 276 272 271 271 268 268 269 270 270 268 267 267 267 267 267 269 271 271 273 276 278 281 279 278 278 277 277 274 273 272 270
261 264 266 267 269 270 271 274 277 277 279 281 278 274 273 271 268 265 266 269 271 270 268 269 269 269 269 268 270 272 275 278 279 281 279 278 279 279 278 275 274 275 272
261 264 268 268 269 269 269 272 274 275 278 281 279 277 274 273 269 267 266 268 271 272 270 269 269 269 271 270 271 273 275 279 281 281 281 280 280 279 278 277 276 274 271
260 264 268 270 270 270 269 273 273 275 280 281 279 276 271 271 270 268 266 268 270 273 273 271 271 271 271 271 271 272 274 278 281 282 281 281 281 279 277 277 275 272 269
260 263 267 269 269 268 268 271 274 277 281 280 277 274 272 270 271 270 269 271 271 272 273 272 272 273 273 272 271 271 274 278 280 282 281 281 280 278 278 278 275 271 269
261 265 269 270 268 269 269 270 273 275 279 277 276 276 274 270 269 271 272 273 273 273 274 274 274 275 275 274 273 272 275 280 282 282 281 280 279 279 280 281 279 274 270
260 265 269 271 269 269 269 271 272 272 275 275 276 277 275 271 270 270 273 274 275 274 273 274 276 278 277 274 272 270 274 279 281 282 283 280 280 280 281 282 281 278 274
260 262 267 270 270 271 270 271 272 272 274 275 276 277 275 272 270 269 272 272 272 273 275 274 276 277 274 274 271 269 271 274 277 282 283 282 280 281 281 283 283 284 281
259 262 268 271 272 272 271 272 271 271 272 274 276 276 274 271 269 269 270 271 272 273 273 273 275 276 276 275 273 273 273 275 278 281 284 283 282 281 280 284 285 285 284
260 265 267 269 272 272 272 274 273 272 272 275 277 278 274 270 266 267 270 272 271 271 272 274 275 278 278 277 278 278 278 279 281 283 286 285 282 280 281 283 285 286 284
260 265 266 268 270 273 273 275 273 272 273 274 274 274 274 271 267 267 268 270 270 272 273 274 277 279 279 279 281 280 282 283 282 285 286 285 282 282 283 283 285 286 284
260 263 268 269 270 271 274 275 273 272 273 274 274 274 275 272 269 268 270 270 270 272 275 276 279 280 279 280 282 280 282 285 286 286 287 287 287 284 285 285 286 285 284
262 267 271 270 269 270 272 274 271 269 270 271 274 275 274 273 271 270 271 271 271 273 277 278 280 281 281 283 282 280 282 283 285 286 288 289 290 289 286 285 285 284 283
265 267 270 270 271 272 274 276 272 273 269 270 270 273 274 272 271 271 271 271 272 273 273 276 280 281 281 282 282 282 283 283 284 285 286 287 289 290 289 285 285 284 285
264 267 269 271 272 273 274 275 274 276 273 270 269 270 272 274 274 274 273 273 274 275 273 276 280 282 282 282 282 282 282 284 285 285 287 288 288 288 287 286 285 286 288
266 268 270 272 272 271 272 273 273 276 275 274 270 270 272 274 276 276 275 276 276 277 274 275 278 282 285 285 282 281 280 282 282 283 285 287 287 288 287 289 288 288 290
266 267 267 269 270 270 273 275 275 275 274 274 272 271 272 273 275 277 277 276 276 276 274 277 279 280 283 284 281 281 280 280 281 282 284 285 287 289 289 291 293 292 291